Find Local Weather

World > North America > United States > Kentucky

Elizabethtown, Kentucky Regional Weather

Lat: 37.70N, Lon: 85.87W
Wx Zone: KYZ028
Warning FLW WEATHER ALERT - FLASH FLOOD WATCH (More Info. Click Here) Warning
Feedback

Elizabethtown, KY Regional Weather

Expires:201902231300;;383174
ASUS43 KLMK 231210
RWRKY 
KENTUCKY REGIONAL WEATHER ROUNDUP
NATIONAL WEATHER SERVICE LOUISVILLE KY
700 AM EST SAT FEB 23 2019

NOTE "FAIR" INDICATES FEW OR NO CLOUDS BELOW 12,000 FEET
WITH NO SIGNIFICANT WEATHER AND/OR OBSTRUCTIONS TO VISIBILITY.


KYZ024-025-028>034-038-045-046-053-231300-
NORTH CENTRAL KENTUCKY
  
CITY           SKY/WX    TMP DP  RH WIND       PRES   REMARKS
LOUISVILLE/SDF LGT RAIN  43  41  93 CALM      30.06F FOG              
LOUISVILLE/LOU LGT RAIN  42  39  89 E8        30.05F FOG              
FORT KNOX      CLOUDY    41  41 100 E7        30.05S                  
$$


SKY/WX - Weather  TMP - Temperature  DP - Dew Point  RH - Relative Humidity
WIND - Wind Direction/Speed PRES - Barometric Pressure VSB - Visibility
WCI - Wind Chill Index E13G22 Wind - East Wind 13 mph/Gusts of 22 mph